Regional Weather Roundup
Issued by NWS

Home | Current Version | Previous Version | Graphics & Text | Print | Product List | Glossary On
Versions: 1 2 3 4 5 6 7 8 9 10 11 12 13 14 15 16 17 18 19 20 21 22 23 24 25 26 27 28 29 30 31 32 33 34 35 36 37 38 39 40 41 42 43 44 45 46 47 48 49 50
000
ASUS43 KMKX 250000
RWRWI

WISCONSIN REGIONAL WEATHER ROUNDUP
NATIONAL WEATHER SERVICE MILWAUKEE/SULLIVAN WI
700 PM CDT FRI MAR 24 2017

NOTE: "FAIR" INDICATES FEW OR NO CLOUDS BELOW 12,000 FEET WITH NO
SIGNIFICANT WEATHER AND/OR OBSTRUCTIONS TO VISIBILITY.

WIZ001-002-006>008-014>016-023>028-250100-
NORTHWEST WISCONSIN

CITY           SKY/WX    TMP DP  RH WIND       PRES   REMARKS
SUPERIOR ARPT  CLOUDY    37  33  87 N3        30.20R
ASHLAND        CLOUDY    36  31  82 NE8       30.20R WCI  30
6HR MIN TEMP:  36; 6HR MAX TEMP:  39;

HAYWARD        CLOUDY    38  30  73 NE10      30.14S WCI  31
6HR MIN TEMP:  38; 6HR MAX TEMP:  41;

SIREN          CLOUDY    38  32  78 NE8       30.15R WCI  32
CUMBERLAND     CLOUDY    36  32  87 NE10      30.12R WCI  28
RICE LAKE      CLOUDY    38  34  84 N14G20    30.13S WCI  30
CHETEK         CLOUDY    38  34  85 NE8       30.12R WCI  32
LADYSMITH      CLOUDY    38  35  86 NE9       30.12F WCI  32
EAU CLAIRE     NOT AVBL
MENOMONIE      CLOUDY    42  36  80 NE9G16    30.12R
NEW RICHMOND   CLOUDY    40  34  80 NE9       30.12R WCI  33
OSCEOLA        CLOUDY    40  34  78 N7        30.16R
$$

WIZ003>005-009-010-017-018-250100-
NORTH CENTRAL WISCONSIN

CITY           SKY/WX    TMP DP  RH WIND       PRES   REMARKS
MANITOWISH WTR CLOUDY    34  34 100 NE6       30.13R WCI  29
ARBOR VITAE    CLOUDY    37  35  93 N5        30.13R WCI  33
WOODRUFF       CLOUDY    37  35  93 N5        30.13R WCI  33
RHINELANDER    CLOUDY    36  34  92 NE8       30.12R FOG     WCI  30
6HR MIN TEMP:  36; 6HR MAX TEMP:  37; 6HR PCP: TRACE;

EAGLE RIVER    CLOUDY    34  34 100 NE7       30.13R FOG     WCI  28
LAND O LAKES   CLOUDY    35  35 100 N3        30.15R FOG
PHILLIPS       CLOUDY    36  34  95 NE9       30.11R WCI  29
TOMAHAWK       CLOUDY    36  32  88 N3        30.12R FOG
MEDFORD        CLOUDY    36  33  90 NE6       30.09R WCI  31
MERRILL        CLOUDY    37  36  95 N5        30.11R WCI  33
$$

WIZ029-030-035-036-043>047-250100-
CENTRAL WISCONSIN

CITY           SKY/WX    TMP DP  RH WIND       PRES   REMARKS
WAUSAU         CLOUDY    37  36  96 N6        30.09R WCI  32
6HR MIN TEMP:  37; 6HR MAX TEMP:  39; 6HR PCP:  0.17;

MOSINEE        CLOUDY    37  37 100 NE6       30.10R WCI  33
MARSHFIELD     CLOUDY    38  36  92 NE10      30.07S WCI  31
6HR MIN TEMP:  38; 6HR MAX TEMP:  39; 6HR PCP:  0.08;

STEVENS POINT  LGT RAIN  35  35 100 NE7       30.09R WCI  29
WAUPACA        LGT RAIN  39  36  91 NE5       30.09R
WAUTOMA        LGT RAIN  37  35  92 NE7       30.09R WCI  32
6HR MIN TEMP:  37; 6HR MAX TEMP:  41; 6HR PCP:  0.17;

WISC RAPIDS    CLOUDY    38  37  97 NE9       30.10R WCI  31
6HR MIN TEMP:  38; 6HR MAX TEMP:  39; 6HR PCP:  0.08;

CAMP DOUGLAS   LGT RAIN  37  37 100 NE7       30.07R WCI  32
$$

WIZ011>013-019>022-031-037>040-048>050-250100-
NORTHEAST WISCONSIN

CITY           SKY/WX    TMP DP  RH WIND       PRES   REMARKS
ANTIGO         CLOUDY    35  34  97 NE7       30.10R FOG     WCI  29
SHAWANO        DRIZZLE   38  36  92 NE5       30.11R WCI  34
OCONTO         CLOUDY    35  34  98 CALM      30.13R
STURGEON BAY   LGT RAIN  35  34  96 N7        30.13R WCI  29
6HR MIN TEMP:  35; 6HR MAX TEMP:  36; 6HR PCP:  0.26;

GREEN BAY      LGT RAIN  36  36 100 NE13      30.11R WCI  27
6HR MIN TEMP:  36; 6HR MAX TEMP:  38; 6HR PCP:  0.19;

MANITOWOC      NOT AVBL
APPLETON       LGT RAIN  36  36 100 NE12      30.07R WCI  27
CLINTONVILLE   DRIZZLE   36  36 100 NE7       30.10R WCI  30
OSHKOSH        LGT RAIN  36  34  92 NE15      30.08R FOG     WCI  27
6HR MIN TEMP:  36; 6HR MAX TEMP:  44; 6HR PCP:  0.05;

$$

WIZ032>034-041-042-053>061-250100-
SOUTHWEST WISCONSIN

CITY           SKY/WX    TMP DP  RH WIND       PRES   REMARKS
LA CROSSE      CLOUDY    43  39  86 N8        30.07R
6HR MIN TEMP:  43; 6HR MAX TEMP:  44;

SPARTA         DRIZZLE   39  38  94 NE7       30.08R WCI  34
VIROQUA        CLOUDY    38  38 100 NE14      30.03S WCI  30
BOSCOBEL       RAIN      44  41  89 NE6       30.03R FOG
6HR MIN TEMP:  44; 6HR MAX TEMP:  58; 6HR PCP:  0.03;

PRAIRIE DU CHI LGT RAIN  44  40  88 N6        30.02R
PLATTEVILLE    CLOUDY    48  46  90 N12       29.99R
$$

WIZ056-057-062-063-064-067-068-250100-
SOUTH CENTRAL WISCONSIN

CITY           SKY/WX    TMP DP  RH WIND       PRES   REMARKS
REEDSBURG      DRIZZLE   39  38  99 NE12G17   30.03R WCI  31
BARABOO/DELLS  CLOUDY    37  36  93 NE13G20   30.02F WCI  29
LONE ROCK      RAIN      44  39  82 NE9       30.04R VSB 1
MINERAL POINT  LGT RAIN  46  43  87 NE12      30.00R
MADISON        CLOUDY    40  37  89 NE14      30.03R FOG     WCI  32
6HR MIN TEMP:  40; 6HR MAX TEMP:  61; 6HR PCP: TRACE;

MIDDLETON      CLOUDY    43  40  88 NE13      30.02R
WATERTOWN      CLOUDY    41  41 100 N6        30.02S FOG
MONROE         CLOUDY    48  43  81 NE15      29.97S
JANESVILLE     MOCLDY    50  43  76 NE10      29.99R
$$

WIZ051-052-058>065-066-070>072-250100-
SOUTHEAST WISCONSIN

CITY           SKY/WX    TMP DP  RH WIND       PRES   REMARKS
MILWAUKEE      CLOUDY    38  34  85 NE17      30.04R WCI  28
6HR MIN TEMP:  38; 6HR MAX TEMP:  55;

WAUKESHA       MOCLDY    39  34  81 NE12G18   30.03R WCI  32
MILWAUKEE/TIMM CLOUDY    39  32  75 NE12      30.04S WCI  32
RACINE         CLOUDY    38  34  85 N16       30.06R FOG     WCI  29
6HR MIN TEMP:  38; 6HR MAX TEMP:  60;

KENOSHA        CLOUDY    39  35  86 N14G28    30.03R FOG     WCI  31
6HR MIN TEMP:  39; 6HR MAX TEMP:  78;

FOND DU LAC    LGT RAIN  37  34  89 NE12      30.08R WCI  29
6HR MIN TEMP:  37; 6HR MAX TEMP:  48; 6HR PCP:  0.07;

SHEBOYGAN      LGT RAIN  36  33  89 NE15G23   30.07R FOG     WCI  27
6HR MIN TEMP:  36; 6HR MAX TEMP:  51; 6HR PCP:  0.05;

WEST BEND      CLOUDY    37  36  93 NE9       30.05R WCI  31
JUNEAU         LGT RAIN  37  36  96 N12       30.02F WCI  30
$$

LSZ147-162-250100-
LAKE SUPERIOR

STATION/POSITION TIME  TEMP    WIND        PRES    WAVE
                       AIR SEA DIR/SP/G            HT/PER
                 (UTC) (F)     (DEG/KT/KT) (MB)    (FT/S)
DEVILS ISLAND    2300   36      70/ 10/ 11 1023.2R
PORT WING        2340   36      30/ 10/ 11 1022.4R
SAXON HARBOR     2330   34      40/  6/  6 1021.7S
$$

LMZ867-665-643>646-250100-
LAKE MICHIGAN

STATION/POSITION TIME  TEMP    WIND        PRES    WAVE
                       AIR SEA DIR/SP/G            HT/PER
                 (UTC) (F)     (DEG/KT/KT) (MB)    (FT/S)
CHAMBERS ISLAND  2340   33     360/  5/  5 1020.0R
NORTHPORT PIER   2340   34      CALM  /  2 1020.3R
SISTER BAY       2251   35      30/  7/  8   N/A
KEWAUNEE LAKESHO 2330   35      30/  9/ 14 1018.6S
SHEBOYGAN LAKESH 2300   36      10/ 25/ 29 1017.4R
PORT WASHINGTON  2340   39      20/  5/ 13 1019.3R
MILWAUKEE LAKESH 2330   37      10/ 15/ 17   N/A
KENOSHA   LAKESH 2300   38      10/ 21/ 26 1016.3
$$

TC  - TEMPERATURE IN CELSIUS
VSB - VISIBILITY IN STATUTE MILES
WCI - WIND CHILL INDEX
HX  - HEAT INDEX




USA.gov is the U.S. government's official web portal to all federal, state and local government web resources and services.